Weather History for Cheboygan, MI

Change the Weather History Date:

Friday, March 7, 2014

  Actual Average (KPLN) Record (KPLN)
Temperature  
Mean Temperature 24 °F -  
Max Temperature 38 °F 32 °F 60 °F (1983)
Min Temperature 11 °F 11 °F -20 °F (1967)
Degree Days  
Heating Degree Days 40    
Moisture  
Dew Point 16 °F    
Average Humidity 70    
Maximum Humidity 93    
Minimum Humidity 55    
Precipitation  
Precipitation 0.00 in - - ()
Sea Level Pressure  
Sea Level Pressure 29.91 in    
Wind  
Wind Speed 7 mph (SW)    
Max Wind Speed 15 mph    
Max Gust Speed 21 mph    
Visibility 8 miles    
Events Snow    
Averages and records for this station are not official NWS values.
T = Trace of Precipitation, MM = Missing Value Source: NWS Daily Summary

Daily Weather History Graph

Daily Weather History Graph

Search for Another Location

Airport:

Trip Planner

Search our weather history database for the weather conditions in past years. The results will help you decide how hot, cold, wet, or windy it might be!

Date:

Astronomy

Mar. 07, 2014 Rise Set
Actual Time 7:05 AM EST 6:33 PM EST
Civil Twilight 6:36 AM EST 7:02 PM EST
Nautical Twilight 6:01 AM EST 7:37 PM EST
Astronomical Twilight 5:27 AM EST 8:12 PM EST
Moon 10:39 AM EST (3/7) 12:55 AM EST (3/7)
Length of Visible Light 12h 26m
Length of Day
11h 27m
Waxing Crescent, 42% of the Moon is Illuminated
Mar 7
Waxing Crescent
Mar 8
First Quarter
Mar 16
Full
Mar 23
Last Quarter
Mar 30
New

Hourly Weather History & Observations

Time (EST) Temp. Windchill Dew Point Humidity Pressure Visibility Wind Dir Wind Speed Gust Speed Precip Events Conditions
12:16 AM 16.7 °F 6.2 °F 3.2 °F 55% 30.06 in 10.0 mi SSE 8.1 mph - N/A   Clear
12:35 AM 16.3 °F 5.7 °F 3.2 °F 56% 30.05 in 10.0 mi SSE 8.1 mph - N/A   Clear
12:55 AM 16.0 °F 6.3 °F 3.2 °F 57% 30.04 in 10.0 mi SSE 6.9 mph - N/A   Clear
1:16 AM 15.6 °F 10.0 °F 3.2 °F 58% 30.03 in 10.0 mi South 3.5 mph - N/A   Clear
1:35 AM 15.1 °F 9.4 °F 3.0 °F 59% 30.05 in 10.0 mi South 3.5 mph - N/A   Clear
1:55 AM 14.7 °F 9.0 °F 2.8 °F 59% 30.05 in 10.0 mi South 3.5 mph - N/A   Clear
2:16 AM 14.0 °F 5.1 °F 2.8 °F 61% 30.03 in 10.0 mi SSE 5.8 mph - N/A   Clear
2:35 AM 14.5 °F 7.1 °F 3.0 °F 60% 30.03 in 10.0 mi SSE 4.6 mph - N/A   Clear
2:55 AM 14.5 °F 5.7 °F 3.2 °F 61% 30.01 in 10.0 mi SSE 5.8 mph - N/A   Clear
3:15 AM 14.9 °F 7.5 °F 3.4 °F 60% 30.01 in 10.0 mi SSE 4.6 mph - N/A   Clear
3:35 AM 14.5 °F 5.7 °F 3.2 °F 61% 30.00 in 10.0 mi SSE 5.8 mph - N/A   Clear
3:55 AM 14.4 °F 8.6 °F 3.6 °F 62% 29.99 in 10.0 mi South 3.5 mph - N/A   Clear
4:15 AM 13.8 °F 6.2 °F 3.6 °F 64% 29.99 in 10.0 mi South 4.6 mph - N/A   Clear
4:35 AM 13.6 °F 3.5 °F 3.7 °F 65% 29.98 in 10.0 mi SSE 6.9 mph - N/A   Clear
4:55 AM 13.3 °F 4.2 °F 3.9 °F 66% 29.98 in 10.0 mi SSE 5.8 mph - N/A   Clear
5:15 AM 13.5 °F - 4.1 °F 66% 29.98 in 10.0 mi Calm Calm - N/A   Clear
5:35 AM 11.5 °F - 3.2 °F 69% 29.99 in 10.0 mi Calm Calm - N/A   Clear
5:55 AM 11.8 °F 5.7 °F 3.9 °F 71% 29.98 in 10.0 mi South 3.5 mph - N/A   Clear
6:15 AM 11.3 °F 1.9 °F 3.6 °F 71% 29.96 in 10.0 mi SSE 5.8 mph - N/A   Clear
6:35 AM 12.2 °F 2.9 °F 4.5 °F 71% 29.95 in 10.0 mi SSE 5.8 mph - N/A   Clear
6:55 AM 11.7 °F 3.7 °F 4.5 °F 73% 29.95 in 10.0 mi SSE 4.6 mph - N/A   Clear
7:16 AM 12.9 °F 5.2 °F 5.7 °F 73% 29.94 in 10.0 mi South 4.6 mph - N/A   Clear
7:35 AM 14.4 °F 8.6 °F 6.6 °F 71% 29.94 in 10.0 mi South 3.5 mph - N/A   Clear
7:55 AM 15.8 °F 6.1 °F 7.7 °F 70% 29.93 in 10.0 mi South 6.9 mph - N/A   Scattered Clouds
8:15 AM 17.6 °F 8.2 °F 9.0 °F 69% 29.92 in 10.0 mi South 6.9 mph - N/A   Scattered Clouds
8:35 AM 18.3 °F 10.2 °F 9.3 °F 68% 29.92 in 10.0 mi South 5.8 mph - N/A   Clear
8:56 AM 19.2 °F 10.2 °F 10.2 °F 68% 29.92 in 10.0 mi South 6.9 mph - N/A   Scattered Clouds
9:15 AM 20.5 °F 12.8 °F 10.9 °F 67% 29.90 in 10.0 mi South 5.8 mph - N/A   Mostly Cloudy
9:35 AM 22.1 °F 15.9 °F 12.0 °F 65% 29.90 in 10.0 mi South 4.6 mph - N/A   Scattered Clouds
9:56 AM 24.6 °F 17.7 °F 13.1 °F 62% 29.89 in 10.0 mi South 5.8 mph - N/A   Mostly Cloudy
10:15 AM 26.1 °F 19.4 °F 14.0 °F 60% 29.89 in 10.0 mi South 5.8 mph - N/A   Overcast
10:35 AM 28.6 °F 24.8 °F 15.8 °F 59% 29.88 in 10.0 mi South 3.5 mph - N/A   Overcast
10:55 AM 29.8 °F 23.0 °F 18.0 °F 61% 29.88 in 10.0 mi SSW 6.9 mph - N/A   Overcast
11:15 AM 32.0 °F 23.0 °F 19.6 °F 60% 29.87 in 10.0 mi SW 11.5 mph - N/A   Overcast
11:35 AM 32.0 °F 26.4 °F 20.1 °F 62% 29.86 in 10.0 mi SW 5.8 mph 9.2 mph N/A   Overcast
11:55 AM 32.7 °F 25.7 °F 20.8 °F 62% 29.85 in 10.0 mi SSW 8.1 mph - N/A   Overcast
12:15 PM 34.0 °F 26.6 °F 21.4 °F 60% 29.85 in 10.0 mi SSW 9.2 mph - N/A   Overcast
12:35 PM 34.9 °F 27.1 °F 22.1 °F 60% 29.85 in 10.0 mi WSW 10.4 mph 16.1 mph N/A   Overcast
12:55 PM 35.6 °F 28.0 °F 22.3 °F 58% 29.84 in 10.0 mi SW 10.4 mph - N/A   Overcast
1:15 PM 37.0 °F 30.4 °F 22.3 °F 55% 29.83 in 10.0 mi WSW 9.2 mph - N/A   Overcast
1:36 PM 37.0 °F 31.0 °F 22.8 °F 56% 29.83 in 10.0 mi SSW 8.1 mph - N/A   Mostly Cloudy
1:55 PM 37.4 °F 29.8 °F 22.6 °F 55% 29.82 in 10.0 mi WSW 11.5 mph 17.3 mph N/A   Mostly Cloudy
2:15 PM 37.4 °F 29.8 °F 22.5 °F 55% 29.82 in 10.0 mi WSW 11.5 mph 16.1 mph N/A   Overcast
2:36 PM 37.4 °F 33.8 °F 23.0 °F 56% 29.81 in 10.0 mi WSW 4.6 mph - N/A   Overcast
2:55 PM 37.9 °F 33.5 °F 23.2 °F 55% 29.80 in 10.0 mi WSW 5.8 mph - N/A   Mostly Cloudy
3:15 PM 38.5 °F 35.0 °F 23.7 °F 55% 29.80 in 10.0 mi West 4.6 mph - N/A   Overcast
3:36 PM 38.3 °F 31.4 °F 23.7 °F 56% 29.81 in 10.0 mi West 10.4 mph - N/A   Overcast
3:55 PM 37.0 °F 29.8 °F 24.3 °F 60% 29.82 in 10.0 mi WSW 10.4 mph 20.7 mph N/A   Overcast
4:15 PM 36.1 °F 27.3 °F 25.7 °F 66% 29.81 in 10.0 mi West 13.8 mph - N/A   Overcast
4:35 PM 35.1 °F 27.9 °F 25.9 °F 69% 29.81 in 10.0 mi WSW 9.2 mph - N/A   Overcast
4:55 PM 34.2 °F 26.8 °F 26.1 °F 72% 29.81 in 7.0 mi West 9.2 mph - N/A   Overcast
5:15 PM 32.5 °F 24.2 °F 27.1 °F 80% 29.81 in 7.0 mi WNW 10.4 mph - N/A   Overcast
5:35 PM 32.0 °F 24.8 °F 27.0 °F 82% 29.83 in 7.0 mi West 8.1 mph 17.3 mph N/A   Overcast
5:55 PM 32.0 °F 23.6 °F 27.1 °F 82% 29.83 in 5.0 mi West 10.4 mph 17.3 mph N/A Snow Light Snow
6:16 PM 31.5 °F 23.5 °F 27.7 °F 86% 29.84 in 2.0 mi West 9.2 mph - N/A Snow Light Snow
6:35 PM 30.9 °F 24.3 °F 28.4 °F 90% 29.85 in 2.5 mi WNW 6.9 mph - N/A Snow Light Snow
6:55 PM 30.4 °F 24.5 °F 27.9 °F 90% 29.86 in 3.0 mi West 5.8 mph - N/A Snow Light Snow
7:16 PM 28.9 °F 19.8 °F 27.0 °F 92% 29.87 in 1.8 mi NW 10.4 mph - N/A Snow Light Snow
7:35 PM 28.4 °F 18.5 °F 26.1 °F 91% 29.87 in 3.0 mi WNW 11.5 mph - N/A Snow Light Snow
7:55 PM 28.0 °F 20.0 °F 26.1 °F 92% 29.88 in 2.0 mi WNW 8.1 mph - N/A Snow Light Snow
8:16 PM 28.0 °F 20.8 °F 26.1 °F 92% 29.89 in 2.5 mi WNW 6.9 mph - N/A Snow Light Snow
8:35 PM 28.2 °F 21.0 °F 26.1 °F 92% 29.90 in 4.0 mi WNW 6.9 mph - N/A Snow Light Snow
8:55 PM 28.2 °F 20.2 °F 26.1 °F 92% 29.90 in 3.0 mi WNW 8.1 mph - N/A Snow Light Snow
9:15 PM 28.2 °F 18.9 °F 25.7 °F 90% 29.91 in 5.0 mi NW 10.4 mph - N/A   Overcast
9:35 PM 28.0 °F 18.6 °F 25.7 °F 91% 29.92 in 5.0 mi NW 10.4 mph - N/A   Overcast
9:55 PM 28.0 °F 19.3 °F 25.7 °F 91% 29.93 in 5.0 mi NW 9.2 mph - N/A   Overcast
10:15 PM 27.9 °F 19.8 °F 25.7 °F 92% 29.94 in 5.0 mi NW 8.1 mph - N/A   Overcast
10:35 PM 27.7 °F 20.4 °F 25.7 °F 92% 29.94 in 5.0 mi NW 6.9 mph - N/A   Overcast
10:55 PM 27.5 °F 18.6 °F 25.7 °F 93% 29.94 in 5.0 mi NW 9.2 mph - N/A   Overcast
11:15 PM 27.5 °F 18.6 °F 25.5 °F 92% 29.96 in 5.0 mi NW 9.2 mph - N/A   Overcast
11:36 PM 27.1 °F 16.9 °F 23.9 °F 88% 29.96 in 7.0 mi NNW 11.5 mph 17.3 mph N/A   Overcast
11:55 PM 26.6 °F 14.7 °F 22.5 °F 84% 29.96 in 10.0 mi NNW 15.0 mph 18.4 mph N/A   Overcast